Orbital Elements at Epoch 2459200.5 (2020-Dec-17.0) TDB
Reference: JPL 16 (heliocentric ecliptic J2000)
Element | Value | Uncertainty (1-sigma) | Units |
e | .1300576976331228 | 4.1867e-08 | |
a | 2.350859176275168 | 1.4051e-08 | au |
q | 2.04511184434912 | 9.7494e-08 | au |
i | 2.111247604455195 | 5.2642e-06 | deg |
node | 327.4945205047698 | 0.00012234 | deg |
peri | 260.0821993991955 | 0.00012396 | deg |
M | 92.19997104186392 | 2.0293e-05 | deg |
tp | 2458863.316253207588 (2020-Jan-14.81625321) | 7.3479e-05 | TDB |
period | 1316.553004015069 3.60 | 1.1804e-05 3.232e-08 | d yr |
n | .2734413266325885 | 2.4516e-09 | deg/d |
Q | 2.656606508201216 | 1.5879e-08 | au |
|
| | Orbit Determination Parameters
Additional Information
|